When you browse on this site, cookies collect data to enhance your experience and personalize the content and advertising you see.
Visit our Privacy Policy to learn more. By continuing to use the site, you agree to this use of cookies and data.
  • In Schweiz
  • Länderverzeichnis
  • Für 7 Tage
  • Wassertemperatur
  • Satellitenkarten
  • Wetterkarte
  • Widgets
  • user-avatar
    Anmelden

    Stündliche Wetter Tusla

    Heute, 10 Dezember, Montag

    Zeit Temperatur Niederschläge Wind Luftdruck Luftfeuchtigkeit
    00:00 +4°C° 0.1 mm 1 m/S 715 mmHg 86%
    01:00 +4°C° 0 mm 1 m/S 714 mmHg 84%
    02:00 +4°C° 0 mm 1 m/S 714 mmHg 84%
    03:00 +3°C° 0 mm 1 m/S 715 mmHg 83%
    04:00 +3°C° 0 mm 1 m/S 715 mmHg 83%
    05:00 +3°C° 0 mm 1 m/S 715 mmHg 83%
    06:00 +3°C° 0 mm 1 m/S 716 mmHg 83%
    07:00 +3°C° 0 mm 1 m/S 717 mmHg 86%
    08:00 +4°C° 0.1 mm 1 m/S 717 mmHg 84%
    09:00 +5°C° 0.1 mm 1 m/S 718 mmHg 83%
    10:00 +5°C° 0.1 mm 2 m/S 718 mmHg 81%
    11:00 +6°C° 0.1 mm 2 m/S 719 mmHg 76%
    12:00 +5°C° 0.1 mm 3 m/S 719 mmHg 70%
    13:00 +7°C° 0 mm 3 m/S 719 mmHg 66%
    14:00 +5°C° 0 mm 3 m/S 719 mmHg 70%
    15:00 +5°C° 0 mm 2 m/S 719 mmHg 73%
    16:00 +5°C° 0 mm 1 m/S 719 mmHg 77%
    17:00 +4°C° 0 mm 1 m/S 720 mmHg 79%
    18:00 +3°C° 0 mm 1 m/S 720 mmHg 80%
    19:00 +2°C° 0 mm 1 m/S 720 mmHg 82%
    20:00 +2°C° 0 mm 1 m/S 721 mmHg 82%
    21:00 +2°C° 0 mm 1 m/S 721 mmHg 82%
    22:00 +2°C° 0 mm 1 m/S 721 mmHg 82%
    23:00 +1°C° 0 mm 1 m/S 721 mmHg 82%

    Morgen, 11 Dezember, Dienstag

    Zeit Temperatur Niederschläge Wind Luftdruck Luftfeuchtigkeit
    00:00 +1°C° 0 mm 1 m/S 721 mmHg 82%
    01:00 +1°C° 0 mm 1 m/S 721 mmHg 82%
    02:00 +1°C° 0 mm 1 m/S 721 mmHg 82%
    03:00 +1°C° 0 mm 1 m/S 721 mmHg 81%
    04:00 0°C° 0 mm 1 m/S 721 mmHg 81%
    05:00 0°C° 0 mm 1 m/S 721 mmHg 81%
    06:00 0°C° 0 mm 1 m/S 721 mmHg 81%
    07:00 0°C° 0 mm 1 m/S 721 mmHg 81%
    08:00 +1°C° 0 mm 1 m/S 721 mmHg 75%
    09:00 +3°C° 0 mm 1 m/S 722 mmHg 69%
    10:00 +4°C° 0 mm 1 m/S 722 mmHg 63%
    11:00 +4°C° 0.1 mm 2 m/S 722 mmHg 60%
    12:00 +4°C° 0.1 mm 2 m/S 722 mmHg 57%
    13:00 +4°C° 0.1 mm 2 m/S 722 mmHg 54%
    14:00 +3°C° 0 mm 2 m/S 722 mmHg 60%
    15:00 +3°C° 0 mm 1 m/S 722 mmHg 65%
    16:00 +2°C° 0 mm 1 m/S 722 mmHg 70%
    17:00 +2°C° 0.1 mm 1 m/S 722 mmHg 72%
    18:00 +2°C° 0.1 mm 1 m/S 722 mmHg 75%
    19:00 +2°C° 0.1 mm 1 m/S 723 mmHg 77%
    20:00 +2°C° 0.1 mm 1 m/S 723 mmHg 78%
    21:00 +1°C° 0.1 mm 1 m/S 723 mmHg 79%
    22:00 +1°C° 0.1 mm 1 m/S 723 mmHg 80%
    23:00 0°C° 0 mm 1 m/S 723 mmHg 80%

    übermorgen, 12 Dezember, Mittwoch

    Zeit Temperatur Niederschläge Wind Luftdruck Luftfeuchtigkeit
    00:00 0°C° 0 mm 1 m/S 723 mmHg 79%
    01:00 -2°C° 0 mm 2 m/S 723 mmHg 78%
    02:00 0°C° 0 mm 1 m/S 723 mmHg 76%
    03:00 0°C° 0 mm 1 m/S 723 mmHg 75%
    04:00 0°C° 0 mm 1 m/S 723 mmHg 73%
    05:00 0°C° 0 mm 1 m/S 723 mmHg 72%
    06:00 0°C° 0 mm 1 m/S 723 mmHg 71%
    07:00 0°C° 0 mm 1 m/S 723 mmHg 69%
    08:00 +2°C° 0 mm 1 m/S 723 mmHg 65%
    09:00 +3°C° 0 mm 1 m/S 724 mmHg 60%
    10:00 +4°C° 0 mm 1 m/S 724 mmHg 55%
    11:00 +5°C° 0 mm 1 m/S 724 mmHg 51%
    12:00 +5°C° 0 mm 1 m/S 723 mmHg 48%
    13:00 +6°C° 0 mm 1 m/S 723 mmHg 44%
    14:00 +5°C° 0 mm 1 m/S 723 mmHg 49%
    15:00 +4°C° 0 mm 1 m/S 723 mmHg 55%
    16:00 +1°C° 0 mm 0 m/S 723 mmHg 60%
    17:00 +1°C° 0 mm 0 m/S 723 mmHg 62%
    18:00 0°C° 0 mm 0 m/S 723 mmHg 65%
    19:00 0°C° 0 mm 0 m/S 723 mmHg 67%
    20:00 0°C° 0 mm 0 m/S 723 mmHg 69%
    21:00 -1°C° 0 mm 0 m/S 723 mmHg 71%
    22:00 -1°C° 0 mm 0 m/S 723 mmHg 72%
    23:00 -1°C° 0 mm 0 m/S 723 mmHg 73%

    13 Dezember, Donnerstag

    Zeit Temperatur Niederschläge Wind Luftdruck Luftfeuchtigkeit
    00:00 -2°C° 0 mm 0 m/S 723 mmHg 74%
    01:00 -2°C° 0 mm 0 m/S 723 mmHg 75%
    02:00 -2°C° 0 mm 0 m/S 723 mmHg 76%
    03:00 -2°C° 0 mm 0 m/S 722 mmHg 76%
    04:00 -2°C° 0 mm 0 m/S 722 mmHg 77%
    05:00 -2°C° 0 mm 0 m/S 722 mmHg 77%
    06:00 -2°C° 0 mm 0 m/S 722 mmHg 78%
    07:00 -2°C° 0 mm 0 m/S 722 mmHg 78%
    08:00 0°C° 0 mm 1 m/S 722 mmHg 74%
    09:00 +1°C° 0 mm 1 m/S 722 mmHg 69%
    10:00 +2°C° 0 mm 1 m/S 722 mmHg 65%
    11:00 +3°C° 0 mm 1 m/S 721 mmHg 63%
    12:00 +3°C° 0 mm 1 m/S 721 mmHg 61%
    13:00 +3°C° 0 mm 2 m/S 721 mmHg 60%
    14:00 +3°C° 0 mm 1 m/S 721 mmHg 66%
    15:00 +2°C° 0 mm 1 m/S 721 mmHg 72%
    16:00 +1°C° 0 mm 1 m/S 721 mmHg 78%
    17:00 +1°C° 0 mm 1 m/S 721 mmHg 81%
    18:00 0°C° 0 mm 1 m/S 721 mmHg 83%
    19:00 -1°C° 0 mm 0 m/S 722 mmHg 86%
    20:00 -1°C° 0 mm 0 m/S 722 mmHg 87%
    21:00 -2°C° 0 mm 0 m/S 722 mmHg 89%
    22:00 -2°C° 0 mm 0 m/S 722 mmHg 91%
    23:00 -2°C° 0 mm 0 m/S 722 mmHg 92%

    14 Dezember, Freitag

    Zeit Temperatur Niederschläge Wind Luftdruck Luftfeuchtigkeit
    00:00 -2°C° 0 mm 0 m/S 723 mmHg 92%
    01:00 -3°C° 0 mm 0 m/S 723 mmHg 92%
    02:00 -3°C° 0 mm 0 m/S 723 mmHg 92%
    03:00 -3°C° 0 mm 0 m/S 723 mmHg 92%
    04:00 -3°C° 0 mm 0 m/S 723 mmHg 92%
    05:00 -3°C° 0 mm 0 m/S 724 mmHg 92%
    06:00 -3°C° 0 mm 0 m/S 724 mmHg 91%
    07:00 -3°C° 0 mm 0 m/S 724 mmHg 91%
    08:00 -1°C° 0 mm 1 m/S 725 mmHg 85%
    09:00 0°C° 0 mm 1 m/S 725 mmHg 79%
    10:00 +1°C° 0 mm 1 m/S 725 mmHg 72%
    11:00 +2°C° 0 mm 1 m/S 725 mmHg 69%
    12:00 +3°C° 0 mm 1 m/S 725 mmHg 66%
    13:00 +4°C° 0 mm 1 m/S 725 mmHg 63%
    14:00 +3°C° 0 mm 1 m/S 725 mmHg 69%
    15:00 +2°C° 0 mm 1 m/S 725 mmHg 74%
    16:00 +1°C° 0 mm 1 m/S 725 mmHg 79%
    17:00 0°C° 0 mm 1 m/S 725 mmHg 81%
    18:00 0°C° 0 mm 1 m/S 726 mmHg 83%
    19:00 0°C° 0 mm 1 m/S 726 mmHg 84%
    20:00 0°C° 0 mm 1 m/S 726 mmHg 85%
    21:00 0°C° 0 mm 1 m/S 726 mmHg 85%
    22:00 -1°C° 0 mm 0 m/S 727 mmHg 85%
    23:00 -1°C° 0 mm 0 m/S 727 mmHg 85%

    15 Dezember, Samstag

    Zeit Temperatur Niederschläge Wind Luftdruck Luftfeuchtigkeit
    00:00 -1°C° 0 mm 0 m/S 727 mmHg 85%
    01:00 -2°C° 0 mm 0 m/S 727 mmHg 85%
    02:00 -2°C° 0 mm 0 m/S 727 mmHg 86%
    03:00 -2°C° 0 mm 0 m/S 726 mmHg 86%
    04:00 -1°C° 0 mm 1 m/S 726 mmHg 87%
    05:00 -1°C° 0 mm 1 m/S 727 mmHg 87%
    06:00 -1°C° 0 mm 1 m/S 727 mmHg 87%
    07:00 -1°C° 0 mm 1 m/S 727 mmHg 87%
    08:00 0°C° 0 mm 1 m/S 727 mmHg 83%
    09:00 +1°C° 0 mm 1 m/S 728 mmHg 80%
    10:00 +1°C° 0 mm 1 m/S 728 mmHg 76%
    11:00 +2°C° 0.1 mm 1 m/S 728 mmHg 76%
    12:00 +2°C° 0.1 mm 1 m/S 727 mmHg 76%
    13:00 +2°C° 0.1 mm 1 m/S 727 mmHg 76%
    14:00 +2°C° 0.2 mm 1 m/S 727 mmHg 80%
    15:00 +1°C° 0.2 mm 1 m/S 727 mmHg 85%
    16:00 +1°C° 0.2 mm 1 m/S 727 mmHg 90%
    17:00 0°C° 0.5 mm 1 m/S 727 mmHg 91%
    18:00 0°C° 0.5 mm 1 m/S 727 mmHg 92%
    19:00 0°C° 0.5 mm 1 m/S 727 mmHg 93%
    20:00 0°C° 0.5 mm 1 m/S 727 mmHg 94%
    21:00 0°C° 0.5 mm 1 m/S 728 mmHg 94%
    22:00 0°C° 0.5 mm 1 m/S 728 mmHg 94%
    23:00 -1°C° 0.3 mm 1 m/S 728 mmHg 95%
    Mehr zeigen